Retour au catalogue

NADEZHDA 6 DEB

ActifSSO
NORAD 36294·DEBRIS·🇷🇺 Russia

Lancé Jun 28, 2000 depuis Plesetsk Cosmodrome

Loading…

Prochains Passages (prochaines 24 heures)

TLE

FraisSource: Space-Track

Époque: Sep 11, 2026, 05:02 UTC

1 36294U 00033E   26254.20986020  .00000670  00000-0  11102-3 0  9997
2 36294  97.8080 232.1145 0014665  52.9829 321.7602 14.73240293687044

Suivez NADEZHDA 6 DEB en temps réel avec AllMySat

Download on the App Store